Time,TemperatureF,DewpointF,PressureIn,WindDirection,WindDirectionDegrees,WindSpeedMPH,WindSpeedGustMPH,Humidity,HourlyPrecipIn,Conditions,Clouds,dailyrainin,SoftwareType,DateUTC
2013-04-20 00:02:00,37.0,33.0,30.12,East,86,0.0,0.0,86,0.00,,,0.00,,2013-04-20 05:02:00,
2013-04-20 00:12:00,37.0,33.0,30.12,East,86,0.0,0.0,86,0.00,,,0.00,,2013-04-20 05:12:00,
2013-04-20 00:22:00,36.0,33.0,30.11,East,86,0.0,0.0,89,0.00,,,0.00,,2013-04-20 05:22:00,
2013-04-20 00:32:00,35.0,32.0,30.12,East,86,0.0,1.0,90,0.00,,,0.00,,2013-04-20 05:32:00,
2013-04-20 00:42:00,35.0,32.0,30.12,East,86,0.0,1.0,90,0.00,,,0.00,,2013-04-20 05:42:00,
2013-04-20 00:51:00,36.0,34.0,30.12,East,86,0.0,0.0,91,0.00,,,0.00,,2013-04-20 05:51:00,
2013-04-20 01:02:00,35.0,33.0,30.12,East,86,0.0,0.0,91,0.00,,,0.00,,2013-04-20 06:02:00,
2013-04-20 01:12:00,35.0,33.0,30.12,East,86,0.0,0.0,91,0.00,,,0.00,,2013-04-20 06:12:00,
2013-04-20 01:21:00,35.0,33.0,30.12,East,86,0.0,0.0,92,0.00,,,0.00,,2013-04-20 06:21:00,
2013-04-20 01:32:00,34.0,32.0,30.12,East,86,0.0,0.0,92,0.00,,,0.00,,2013-04-20 06:32:00,
2013-04-20 01:42:00,34.0,32.0,30.12,East,86,0.0,0.0,92,0.00,,,0.00,,2013-04-20 06:42:00,
2013-04-20 01:52:00,34.0,32.0,30.12,East,86,0.0,0.0,93,0.00,,,0.00,,2013-04-20 06:52:00,
2013-04-20 02:01:00,34.0,32.0,30.12,East,86,0.0,0.0,94,0.00,,,0.00,,2013-04-20 07:01:00,
2013-04-20 02:11:00,34.0,32.0,30.12,East,86,0.0,0.0,94,0.00,,,0.00,,2013-04-20 07:11:00,
2013-04-20 02:21:00,34.0,32.0,30.12,SE,139,0.0,1.0,94,0.00,,,0.00,,2013-04-20 07:21:00,
2013-04-20 02:32:00,34.0,32.0,30.12,SE,139,0.0,0.0,94,0.00,,,0.00,,2013-04-20 07:32:00,
2013-04-20 02:42:00,34.0,33.0,30.12,SE,137,0.0,1.0,95,0.00,,,0.00,,2013-04-20 07:42:00,
2013-04-20 02:52:00,34.0,33.0,30.12,SE,137,0.0,1.0,95,0.00,,,0.00,,2013-04-20 07:52:00,
2013-04-20 03:01:00,33.0,32.0,30.12,SE,141,0.0,1.0,95,0.00,,,0.00,,2013-04-20 08:01:00,
2013-04-20 03:11:00,33.0,32.0,30.12,SE,141,0.0,1.0,95,0.00,,,0.00,,2013-04-20 08:11:00,
2013-04-20 03:21:00,33.0,32.0,30.12,SE,141,0.0,0.0,95,0.00,,,0.00,,2013-04-20 08:21:00,
2013-04-20 03:32:00,33.0,32.0,30.12,SE,141,0.0,0.0,95,0.00,,,0.00,,2013-04-20 08:32:00,
2013-04-20 03:42:00,33.0,32.0,30.12,SE,141,0.0,0.0,95,0.00,,,0.00,,2013-04-20 08:42:00,
2013-04-20 03:52:00,32.0,31.0,30.13,SE,141,0.0,0.0,95,0.00,,,0.00,,2013-04-20 08:52:00,
2013-04-20 04:01:00,33.0,32.0,30.13,SE,141,0.0,0.0,96,0.00,,,0.00,,2013-04-20 09:01:00,
2013-04-20 04:12:00,33.0,32.0,30.13,SE,141,0.0,0.0,96,0.00,,,0.00,,2013-04-20 09:12:00,
2013-04-20 04:21:00,32.0,31.0,30.13,SE,141,0.0,0.0,95,0.00,,,0.00,,2013-04-20 09:21:00,
2013-04-20 04:33:00,32.0,31.0,30.14,SE,141,0.0,0.0,96,0.00,,,0.00,,2013-04-20 09:33:00,
2013-04-20 04:43:00,32.0,31.0,30.14,SE,141,0.0,0.0,96,0.00,,,0.00,,2013-04-20 09:43:00,
2013-04-20 04:52:00,32.0,31.0,30.14,SE,141,0.0,0.0,96,0.00,,,0.00,,2013-04-20 09:52:00,
2013-04-20 05:03:00,32.0,31.0,30.14,SE,141,0.0,0.0,96,0.00,,,0.00,,2013-04-20 10:03:00,
2013-04-20 05:12:00,32.0,31.0,30.14,SE,141,0.0,0.0,96,0.00,,,0.00,,2013-04-20 10:12:00,
2013-04-20 05:23:00,32.0,31.0,30.14,SE,141,0.0,0.0,96,0.00,,,0.00,,2013-04-20 10:23:00,
2013-04-20 05:33:00,32.0,31.0,30.15,SE,141,0.0,0.0,96,0.00,,,0.00,,2013-04-20 10:33:00,
2013-04-20 05:42:00,32.0,31.0,30.15,SE,141,0.0,0.0,96,0.00,,,0.00,,2013-04-20 10:42:00,
2013-04-20 05:52:00,32.0,31.0,30.15,SE,141,0.0,0.0,97,0.00,,,0.00,,2013-04-20 10:52:00,
2013-04-20 06:02:00,31.0,30.0,30.16,SE,141,0.0,0.0,96,0.00,,,0.00,,2013-04-20 11:02:00,
2013-04-20 06:12:00,31.0,30.0,30.16,SE,141,0.0,0.0,96,0.00,,,0.00,,2013-04-20 11:12:00,
2013-04-20 06:23:00,31.0,30.0,30.16,SE,141,0.0,0.0,96,0.00,,,0.00,,2013-04-20 11:23:00,
2013-04-20 06:32:00,31.0,30.0,30.17,SE,141,0.0,0.0,97,0.00,,,0.00,,2013-04-20 11:32:00,
2013-04-20 06:42:00,31.0,30.0,30.17,SE,141,0.0,0.0,97,0.00,,,0.00,,2013-04-20 11:42:00,
2013-04-20 06:52:00,32.0,31.0,30.17,SE,141,0.0,0.0,97,0.00,,,0.00,,2013-04-20 11:52:00,
2013-04-20 07:02:00,32.0,31.0,30.18,SE,141,0.0,0.0,97,0.00,,,0.00,,2013-04-20 12:02:00,
2013-04-20 07:11:00,32.0,31.0,30.18,SE,141,0.0,0.0,97,0.00,,,0.00,,2013-04-20 12:11:00,
2013-04-20 07:22:00,33.0,32.0,30.18,North,6,0.0,0.0,97,0.00,,,0.00,,2013-04-20 12:22:00,
2013-04-20 07:32:00,34.0,33.0,30.19,North,6,0.0,0.0,97,0.00,,,0.00,,2013-04-20 12:32:00,
2013-04-20 07:42:00,34.0,33.0,30.19,North,6,0.0,0.0,97,0.00,,,0.00,,2013-04-20 12:42:00,
2013-04-20 07:52:00,35.0,34.0,30.19,North,6,0.0,0.0,97,0.00,,,0.00,,2013-04-20 12:52:00,
2013-04-20 08:02:00,37.0,36.0,30.19,North,5,0.0,0.0,97,0.00,,,0.00,,2013-04-20 13:02:00,
2013-04-20 08:11:00,38.0,36.0,30.20,SSW,211,0.0,3.0,94,0.00,,,0.00,,2013-04-20 13:11:00,
2013-04-20 08:21:00,38.0,36.0,30.20,SSW,211,0.0,3.0,94,0.00,,,0.00,,2013-04-20 13:21:00,
2013-04-20 08:32:00,41.0,37.0,30.21,West,259,0.0,1.0,87,0.00,,,0.00,,2013-04-20 13:32:00,
2013-04-20 08:42:00,41.0,37.0,30.21,West,259,0.0,1.0,87,0.00,,,0.00,,2013-04-20 13:42:00,
2013-04-20 08:52:00,43.0,38.0,30.21,WSW,243,0.0,2.0,81,0.00,,,0.00,,2013-04-20 13:52:00,
2013-04-20 09:02:00,46.0,39.0,30.22,SW,214,0.0,1.0,76,0.00,,,0.00,,2013-04-20 14:02:00,
2013-04-20 09:11:00,46.0,39.0,30.22,SW,214,0.0,1.0,76,0.00,,,0.00,,2013-04-20 14:11:00,
2013-04-20 09:21:00,49.0,39.0,30.22,SSW,201,0.0,0.0,68,0.00,,,0.00,,2013-04-20 14:21:00,
2013-04-20 09:32:00,51.0,37.0,30.22,West,266,0.0,0.0,59,0.00,,,0.00,,2013-04-20 14:32:00,
2013-04-20 09:42:00,51.0,37.0,30.22,West,266,0.0,0.0,59,0.00,,,0.00,,2013-04-20 14:42:00,
2013-04-20 09:51:00,51.0,36.0,30.22,West,266,0.0,0.0,57,0.00,,,0.00,,2013-04-20 14:51:00,
2013-04-20 10:01:00,53.0,36.0,30.22,ESE,121,1.0,2.0,52,0.00,,,0.00,,2013-04-20 15:01:00,
2013-04-20 10:11:00,53.0,36.0,30.22,ESE,121,1.0,2.0,52,0.00,,,0.00,,2013-04-20 15:11:00,
2013-04-20 10:21:00,53.0,35.0,30.23,West,277,0.0,3.0,51,0.00,,,0.00,,2013-04-20 15:21:00,
2013-04-20 10:33:00,55.0,36.0,30.24,NE,37,1.0,3.0,49,0.00,,,0.00,,2013-04-20 15:33:00,
2013-04-20 10:43:00,55.0,36.0,30.24,NE,37,1.0,3.0,49,0.00,,,0.00,,2013-04-20 15:43:00,
2013-04-20 10:53:00,55.0,35.0,30.24,NNE,20,2.0,4.0,46,0.00,,,0.00,,2013-04-20 15:53:00,
2013-04-20 11:03:00,56.0,36.0,30.24,ENE,67,1.0,2.0,47,0.00,,,0.00,,2013-04-20 16:03:00,
2013-04-20 11:12:00,57.0,35.0,30.24,SSW,211,1.0,3.0,44,0.00,,,0.00,,2013-04-20 16:12:00,
2013-04-20 11:23:00,57.0,35.0,30.24,SSW,211,1.0,3.0,44,0.00,,,0.00,,2013-04-20 16:23:00,
2013-04-20 11:32:00,57.0,35.0,30.24,North,351,1.0,3.0,43,0.00,,,0.00,,2013-04-20 16:32:00,
2013-04-20 11:42:00,60.0,37.0,30.24,SSE,153,1.0,4.0,42,0.00,,,0.00,,2013-04-20 16:42:00,
2013-04-20 11:53:00,60.0,37.0,30.24,SSE,153,1.0,4.0,42,0.00,,,0.00,,2013-04-20 16:53:00,
2013-04-20 12:02:00,62.0,35.0,30.24,North,359,0.0,3.0,37,0.00,,,0.00,,2013-04-20 17:02:00,
2013-04-20 12:12:00,61.0,35.0,30.23,North,6,0.0,4.0,38,0.00,,,0.00,,2013-04-20 17:12:00,
2013-04-20 12:23:00,61.0,35.0,30.23,North,6,0.0,4.0,38,0.00,,,0.00,,2013-04-20 17:23:00,
2013-04-20 12:33:00,62.0,35.0,30.22,ENE,67,2.0,7.0,36,0.00,,,0.00,,2013-04-20 17:33:00,
2013-04-20 12:42:00,62.0,35.0,30.22,ENE,67,2.0,7.0,36,0.00,,,0.00,,2013-04-20 17:42:00,
2013-04-20 12:52:00,62.0,35.0,30.22,SW,224,1.0,4.0,37,0.00,,,0.00,,2013-04-20 17:52:00,
2013-04-20 13:02:00,64.0,35.0,30.21,WNW,295,2.0,7.0,34,0.00,,,0.00,,2013-04-20 18:02:00,
2013-04-20 13:12:00,64.0,37.0,30.20,West,264,1.0,6.0,36,0.00,,,0.00,,2013-04-20 18:12:00,
2013-04-20 13:22:00,64.0,37.0,30.20,West,264,1.0,6.0,36,0.00,,,0.00,,2013-04-20 18:22:00,
2013-04-20 13:32:00,64.0,37.0,30.20,South,176,1.0,4.0,36,0.00,,,0.00,,2013-04-20 18:32:00,
2013-04-20 13:42:00,64.0,37.0,30.20,South,176,1.0,4.0,36,0.00,,,0.00,,2013-04-20 18:42:00,
2013-04-20 13:52:00,65.0,35.0,30.19,SW,233,3.0,9.0,33,0.00,,,0.00,,2013-04-20 18:52:00,
2013-04-20 14:01:00,65.0,33.0,30.19,WNW,294,4.0,8.0,30,0.00,,,0.00,,2013-04-20 19:01:00,
2013-04-20 14:11:00,65.0,33.0,30.19,SW,224,2.0,5.0,30,0.00,,,0.00,,2013-04-20 19:11:00,
2013-04-20 14:21:00,65.0,33.0,30.19,SW,224,2.0,5.0,30,0.00,,,0.00,,2013-04-20 19:21:00,
2013-04-20 14:32:00,66.0,34.0,30.18,WNW,293,2.0,7.0,30,0.00,,,0.00,,2013-04-20 19:32:00,
2013-04-20 14:42:00,66.0,34.0,30.18,SSW,204,2.0,6.0,30,0.00,,,0.00,,2013-04-20 19:42:00,
2013-04-20 14:52:00,66.0,34.0,30.18,SSW,204,2.0,6.0,30,0.00,,,0.00,,2013-04-20 19:52:00,
2013-04-20 15:02:00,65.0,34.0,30.17,WSW,238,2.0,7.0,31,0.00,,,0.00,,2013-04-20 20:02:00,
2013-04-20 15:12:00,66.0,34.0,30.17,NNW,335,1.0,4.0,31,0.00,,,0.00,,2013-04-20 20:12:00,
2013-04-20 15:21:00,66.0,34.0,30.17,NNW,335,1.0,4.0,31,0.00,,,0.00,,2013-04-20 20:21:00,
2013-04-20 15:32:00,67.0,35.0,30.16,SW,227,1.0,4.0,31,0.00,,,0.00,,2013-04-20 20:32:00,
2013-04-20 15:42:00,67.0,35.0,30.16,SW,227,1.0,4.0,31,0.00,,,0.00,,2013-04-20 20:42:00,
2013-04-20 15:52:00,66.0,34.0,30.15,SE,137,1.0,3.0,31,0.00,,,0.00,,2013-04-20 20:52:00,
2013-04-20 16:01:00,66.0,34.0,30.15,NE,56,0.0,3.0,30,0.00,,,0.00,,2013-04-20 21:01:00,
2013-04-20 16:12:00,67.0,35.0,30.15,NW,319,2.0,7.0,30,0.00,,,0.00,,2013-04-20 21:12:00,
2013-04-20 16:21:00,67.0,35.0,30.15,NW,319,2.0,7.0,30,0.00,,,0.00,,2013-04-20 21:21:00,
2013-04-20 16:33:00,66.0,33.0,30.14,North,5,1.0,3.0,29,0.00,,,0.00,,2013-04-20 21:33:00,
2013-04-20 16:43:00,66.0,33.0,30.14,North,5,1.0,3.0,29,0.00,,,0.00,,2013-04-20 21:43:00,
2013-04-20 16:53:00,66.0,33.0,30.14,ESE,113,0.0,6.0,29,0.00,,,0.00,,2013-04-20 21:53:00,
2013-04-20 17:02:00,66.0,34.0,30.14,ENE,63,0.0,1.0,30,0.00,,,0.00,,2013-04-20 22:02:00,
2013-04-20 17:12:00,66.0,34.0,30.14,ENE,63,0.0,1.0,30,0.00,,,0.00,,2013-04-20 22:12:00,
2013-04-20 17:22:00,66.0,34.0,30.14,NE,55,0.0,2.0,30,0.00,,,0.00,,2013-04-20 22:22:00,
2013-04-20 17:32:00,66.0,35.0,30.14,ENE,65,0.0,0.0,32,0.00,,,0.00,,2013-04-20 22:32:00,
2013-04-20 17:42:00,66.0,35.0,30.14,ENE,65,0.0,0.0,32,0.00,,,0.00,,2013-04-20 22:42:00,
2013-04-20 17:53:00,65.0,35.0,30.14,ESE,109,2.0,6.0,33,0.00,,,0.00,,2013-04-20 22:53:00,
2013-04-20 18:02:00,65.0,37.0,30.14,ESE,115,1.0,4.0,35,0.00,,,0.00,,2013-04-20 23:02:00,
2013-04-20 18:11:00,65.0,37.0,30.14,ESE,115,1.0,4.0,35,0.00,,,0.00,,2013-04-20 23:11:00,
2013-04-20 18:22:00,64.0,35.0,30.14,ESE,114,1.0,6.0,34,0.00,,,0.00,,2013-04-20 23:22:00,
2013-04-20 18:32:00,65.0,36.0,30.14,NE,42,0.0,4.0,34,0.00,,,0.00,,2013-04-20 23:32:00,
2013-04-20 18:42:00,65.0,36.0,30.14,NE,42,0.0,4.0,34,0.00,,,0.00,,2013-04-20 23:42:00,
2013-04-20 18:53:00,65.0,35.0,30.13,East,91,1.0,4.0,33,0.00,,,0.00,,2013-04-20 23:53:00,
2013-04-20 19:01:00,65.0,35.0,30.13,ENE,73,1.0,3.0,33,0.00,,,0.00,,2013-04-21 00:01:00,
2013-04-20 19:11:00,65.0,35.0,30.13,ENE,73,1.0,3.0,33,0.00,,,0.00,,2013-04-21 00:11:00,
2013-04-20 19:21:00,65.0,36.0,30.13,ENE,69,2.0,5.0,34,0.00,,,0.00,,2013-04-21 00:21:00,
2013-04-20 19:32:00,64.0,36.0,30.14,ESE,105,1.0,3.0,35,0.00,,,0.00,,2013-04-21 00:32:00,
2013-04-20 19:42:00,64.0,36.0,30.14,ESE,105,1.0,3.0,35,0.00,,,0.00,,2013-04-21 00:42:00,
2013-04-20 19:52:00,63.0,37.0,30.14,NE,46,0.0,3.0,38,0.00,,,0.00,,2013-04-21 00:52:00,
2013-04-20 20:01:00,61.0,36.0,30.14,SE,124,0.0,2.0,40,0.00,,,0.00,,2013-04-21 01:01:00,
2013-04-20 20:11:00,61.0,36.0,30.14,SE,124,0.0,2.0,40,0.00,,,0.00,,2013-04-21 01:11:00,
2013-04-20 20:21:00,60.0,37.0,30.15,ESE,110,0.0,1.0,43,0.00,,,0.00,,2013-04-21 01:21:00,
2013-04-20 20:31:00,59.0,38.0,30.16,ESE,103,1.0,3.0,45,0.00,,,0.00,,2013-04-21 01:31:00,
2013-04-20 20:42:00,59.0,38.0,30.16,ESE,103,1.0,3.0,45,0.00,,,0.00,,2013-04-21 01:42:00,
2013-04-20 20:52:00,58.0,37.0,30.16,East,86,1.0,6.0,46,0.00,,,0.00,,2013-04-21 01:52:00,
2013-04-20 21:01:00,58.0,38.0,30.17,ESE,115,1.0,7.0,48,0.00,,,0.00,,2013-04-21 02:01:00,
2013-04-20 21:11:00,58.0,38.0,30.17,ESE,115,1.0,7.0,48,0.00,,,0.00,,2013-04-21 02:11:00,
2013-04-20 21:21:00,58.0,40.0,30.18,ESE,104,1.0,5.0,51,0.00,,,0.00,,2013-04-21 02:21:00,
2013-04-20 21:32:00,57.0,41.0,30.19,East,100,3.0,7.0,55,0.00,,,0.00,,2013-04-21 02:32:00,
2013-04-20 21:41:00,57.0,41.0,30.19,East,100,3.0,7.0,55,0.00,,,0.00,,2013-04-21 02:41:00,
2013-04-20 21:52:00,57.0,42.0,30.20,East,98,4.0,10.0,57,0.00,,,0.00,,2013-04-21 02:52:00,
2013-04-20 22:01:00,57.0,42.0,30.20,ESE,108,2.0,9.0,58,0.00,,,0.00,,2013-04-21 03:01:00,
2013-04-20 22:11:00,57.0,42.0,30.20,ESE,108,2.0,9.0,58,0.00,,,0.00,,2013-04-21 03:11:00,
2013-04-20 22:21:00,57.0,42.0,30.21,ESE,106,4.0,8.0,58,0.00,,,0.00,,2013-04-21 03:21:00,
2013-04-20 22:32:00,57.0,42.0,30.21,East,86,2.0,6.0,58,0.00,,,0.00,,2013-04-21 03:32:00,
2013-04-20 22:42:00,57.0,42.0,30.21,East,86,2.0,6.0,58,0.00,,,0.00,,2013-04-21 03:42:00,
2013-04-20 22:52:00,57.0,42.0,30.22,ESE,122,4.0,9.0,58,0.00,,,0.00,,2013-04-21 03:52:00,
2013-04-20 23:02:00,57.0,43.0,30.22,ESE,113,3.0,8.0,59,0.00,,,0.00,,2013-04-21 04:02:00,
2013-04-20 23:12:00,56.0,42.0,30.22,SE,136,2.0,5.0,60,0.00,,,0.00,,2013-04-21 04:12:00,
2013-04-20 23:22:00,56.0,42.0,30.22,SE,136,2.0,5.0,60,0.00,,,0.00,,2013-04-21 04:22:00,
2013-04-20 23:33:00,56.0,42.0,30.22,SE,136,2.0,6.0,60,0.00,,,0.00,,2013-04-21 04:33:00,
2013-04-20 23:42:00,56.0,42.0,30.22,SE,136,2.0,6.0,60,0.00,,,0.00,,2013-04-21 04:42:00,
2013-04-20 23:53:00,55.0,42.0,30.22,ESE,122,0.0,3.0,61,0.00,,,0.00,,2013-04-21 04:53:00,